| time (UTC) | temp F | wind direction | speed MPH | gust MPH | rain 1hr in | rain 24hr in | rain mn in | humidity % | barometer mb |
| 20260507003505 | 41 | 122 | 4.0 | 7.0 | 0.04 | 0.71 | 0.05 | 99 | 1005.2 |
| 20260507003005 | 39 | 287 | 1.0 | 4.0 | 0.05 | 0.71 | 0.05 | 99 | 1005.2 |
| 20260507002505 | 39 | 294 | 2.0 | 4.0 | 0.05 | 0.71 | 0.05 | 99 | 1005.2 |
| 20260507002005 | 39 | 283 | 0.0 | 6.0 | 0.05 | 0.71 | 0.05 | 99 | 1005.1 |
| 20260507001505 | 40 | 290 | 2.0 | 6.0 | 0.05 | 0.71 | 0.05 | 99 | 1005.1 |
| 20260507001005 | 40 | 309 | 2.0 | 4.0 | 0.04 | 0.70 | 0.04 | 99 | 1005.2 |
| 20260507000505 | 40 | 310 | 3.0 | 6.0 | 0.02 | 0.70 | 0.02 | 99 | 1005.3 |
| 20260507000006 | 39 | 301 | 3.0 | 6.0 | 0.02 | 0.70 | 0.02 | 99 | 1005.0 |
| 20260506235505 | 39 | 291 | 2.0 | 7.0 | 0.02 | 0.72 | 0.02 | 99 | 1005.2 |
| 20260506235005 | 39 | 287 | 2.0 | 7.0 | 0.02 | 0.72 | 0.02 | 99 | 1005.4 |
| 20260506234006 | 40 | 292 | 1.0 | 4.0 | 0.01 | 0.74 | 0.01 | 99 | 1005.5 |
| 20260506233006 | 39 | 297 | 1.0 | 4.0 | 0.00 | 0.73 | 0.00 | 99 | 1005.4 |
| 20260506232006 | 39 | 292 | 2.0 | 4.0 | 0.00 | 0.73 | 0.00 | 99 | 1005.4 |
| 20260506231505 | 39 | 291 | 2.0 | 4.0 | 0.00 | 0.73 | 0.00 | 99 | 1005.3 |
| 20260506231005 | 39 | 293 | 2.0 | 7.0 | 0.00 | 0.73 | 0.00 | 99 | 1005.5 |
| 20260506230005 | 39 | 285 | 2.0 | 4.0 | 0.00 | 0.73 | 0.00 | 99 | 1005.3 |
| 20260506225506 | 39 | 286 | 2.0 | 4.0 | 0.00 | 0.73 | 0.00 | 99 | 1005.2 |
| 20260506224505 | 40 | 261 | 2.0 | 4.0 | 0.00 | 0.73 | 0.00 | 99 | 1005.2 |
| 20260506224005 | 39 | 239 | 2.0 | 8.0 | 0.00 | 0.73 | 0.00 | 99 | 1005.3 |
| 20260506223505 | 41 | 237 | 1.0 | 8.0 | 0.00 | 0.73 | 0.00 | 99 | 1005.2 |
| 20260506222505 | 41 | 141 | 2.0 | 9.0 | 0.00 | 0.73 | 0.00 | 99 | 1005.0 |
| 20260506220506 | 39 | 297 | 2.0 | 6.0 | 0.01 | 0.73 | 0.00 | 99 | 1005.2 |
| 20260506220009 | 39 | 309 | 2.0 | 4.0 | 0.01 | 0.73 | 0.00 | 99 | 1005.3 |
| 20260506215506 | 39 | 312 | 2.0 | 4.0 | 0.01 | 0.73 | 0.73 | 99 | 1005.1 |
| 20260506215006 | 39 | 327 | 2.0 | 7.0 | 0.01 | 0.73 | 0.73 | 99 | 1004.9 |
| 20260506214006 | 39 | 325 | 2.0 | 4.0 | 0.01 | 0.73 | 0.73 | 99 | 1005.0 |
| 20260506213005 | 39 | 311 | 2.0 | 4.0 | 0.01 | 0.73 | 0.73 | 99 | 1005.1 |
| 20260506212005 | 39 | 325 | 2.0 | 4.0 | 0.01 | 0.74 | 0.73 | 99 | 1005.3 |
| 20260506211506 | 39 | 15 | 2.0 | 4.0 | 0.01 | 0.76 | 0.73 | 99 | 1005.1 |
| 20260506211006 | 41 | 135 | 1.0 | 4.0 | 0.01 | 0.76 | 0.73 | 99 | 1005.2 |
| 20260506210005 | 41 | 99 | 2.0 | 4.0 | 0.00 | 0.74 | 0.72 | 99 | 1004.8 |
| 20260506205506 | 41 | 110 | 0.0 | 7.0 | 0.00 | 0.74 | 0.72 | 99 | 1005.0 |
| 20260506205006 | 41 | 112 | 1.0 | 7.0 | 0.00 | 0.74 | 0.72 | 99 | 1004.9 |
| 20260506204505 | 40 | 122 | 4.0 | 7.0 | 0.00 | 0.74 | 0.72 | 99 | 1004.8 |
| 20260506204006 | 41 | 136 | 2.0 | 7.0 | 0.00 | 0.74 | 0.72 | 99 | 1005.1 |
| 20260506203505 | 40 | 138 | 2.0 | 7.0 | 0.00 | 0.78 | 0.72 | 99 | 1004.8 |
| 20260506203006 | 40 | 138 | 5.0 | 7.0 | 0.00 | 0.79 | 0.72 | 99 | 1005.1 |
| 20260506202506 | 40 | 124 | 1.0 | 7.0 | 0.00 | 0.79 | 0.72 | 99 | 1005.0 |
| 20260506202006 | 40 | 116 | 3.0 | 7.0 | 0.00 | 0.79 | 0.72 | 99 | 1004.9 |
| 20260506201506 | 39 | 64 | 3.0 | 6.0 | 0.00 | 0.79 | 0.72 | 99 | 1004.8 |
| 20260506200505 | 39 | 53 | 3.0 | 4.0 | 0.00 | 0.80 | 0.72 | 99 | 1004.9 |
| 20260506200006 | 39 | 349 | 2.0 | 4.0 | 0.00 | 0.80 | 0.72 | 99 | 1004.7 |
| 20260506195506 | 39 | 295 | 1.0 | 4.0 | 0.00 | 0.80 | 0.72 | 99 | 1004.7 |
| 20260506195006 | 39 | 285 | 0.0 | 4.0 | 0.01 | 0.80 | 0.72 | 99 | 1004.7 |
| 20260506194506 | 39 | 93 | 2.0 | 4.0 | 0.04 | 0.80 | 0.72 | 99 | 1004.4 |
| 20260506194005 | 39 | 78 | 0.0 | 4.0 | 0.06 | 0.80 | 0.72 | 99 | 1004.6 |
| 20260506193506 | 39 | 307 | 2.0 | 4.0 | 0.07 | 0.81 | 0.72 | 99 | 1004.2 |
| 20260506193005 | 39 | 306 | 1.0 | 4.0 | 0.08 | 0.81 | 0.72 | 99 | 1004.3 |
| 20260506192505 | 39 | 308 | 2.0 | 4.0 | 0.08 | 0.81 | 0.72 | 99 | 1004.4 |
| 20260506192006 | 39 | 327 | 3.0 | 4.0 | 0.08 | 0.81 | 0.72 | 99 | 1004.2 |
| 20260506191505 | 39 | 343 | 1.0 | 4.0 | 0.08 | 0.83 | 0.72 | 99 | 1004.2 |
| 20260506191006 | 39 | 352 | 2.0 | 4.0 | 0.08 | 0.83 | 0.72 | 99 | 1004.2 |
| 20260506190505 | 40 | 358 | 3.0 | 4.0 | 0.08 | 0.83 | 0.72 | 99 | 1003.9 |
| 20260506190006 | 40 | 347 | 2.0 | 4.0 | 0.08 | 0.83 | 0.72 | 99 | 1003.6 |
| 20260506185005 | 40 | 123 | 1.0 | 4.0 | 0.07 | 0.81 | 0.71 | 99 | 1004.4 |
| 20260506184506 | 41 | 181 | 1.0 | 4.0 | 0.06 | 0.79 | 0.69 | 99 | 1004.5 |
| 20260506184006 | 40 | 293 | 1.0 | 4.0 | 0.04 | 0.77 | 0.66 | 99 | 1004.2 |
| 20260506183006 | 40 | 291 | 2.0 | 4.0 | 0.01 | 0.74 | 0.64 | 99 | 1004.1 |
| 20260506182506 | 39 | 299 | 2.0 | 4.0 | 0.01 | 0.74 | 0.64 | 99 | 1003.8 |
| 20260506182006 | 40 | 296 | 2.0 | 4.0 | 0.01 | 0.76 | 0.64 | 99 | 1003.6 |
| 20260506181505 | 40 | 293 | 2.0 | 4.0 | 0.01 | 0.77 | 0.64 | 99 | 1003.5 |
| 20260506180505 | 40 | 289 | 2.0 | 4.0 | 0.02 | 0.77 | 0.64 | 99 | 1003.4 |
| 20260506180006 | 40 | 294 | 2.0 | 6.0 | 0.02 | 0.77 | 0.64 | 99 | 1003.5 |
| 20260506175006 | 39 | 344 | 4.0 | 4.0 | 0.02 | 0.78 | 0.64 | 99 | 1003.2 |
| 20260506174505 | 40 | 331 | 0.0 | 6.0 | 0.01 | 0.77 | 0.63 | 99 | 1003.4 |
| 20260506174006 | 39 | 319 | 2.0 | 6.0 | 0.02 | 0.77 | 0.63 | 99 | 1003.2 |
| 20260506173505 | 40 | 318 | 2.0 | 6.0 | 0.02 | 0.77 | 0.63 | 99 | 1003.1 |
| 20260506173006 | 40 | 319 | 3.0 | 6.0 | 0.02 | 0.77 | 0.63 | 99 | 1002.9 |
| 20260506172506 | 40 | 312 | 3.0 | 6.0 | 0.04 | 0.77 | 0.63 | 99 | 1003.0 |
| 20260506172006 | 40 | 318 | 2.0 | 6.0 | 0.04 | 0.77 | 0.63 | 99 | 1003.1 |
| 20260506171505 | 40 | 321 | 2.0 | 6.0 | 0.04 | 0.77 | 0.63 | 99 | 1003.2 |
| 20260506171006 | 40 | 310 | 4.0 | 6.0 | 0.04 | 0.77 | 0.63 | 99 | 1002.8 |
| 20260506170505 | 40 | 309 | 3.0 | 6.0 | 0.02 | 0.77 | 0.61 | 99 | 1003.2 |
| 20260506170006 | 40 | 311 | 3.0 | 6.0 | 0.02 | 0.77 | 0.61 | 99 | 1003.1 |
| 20260506165505 | 40 | 312 | 3.0 | 6.0 | 0.02 | 0.77 | 0.61 | 99 | 1003.0 |
| 20260506165006 | 40 | 315 | 2.0 | 7.0 | 0.02 | 0.77 | 0.61 | 99 | 1002.8 |
| 20260506164506 | 40 | 310 | 3.0 | 7.0 | 0.02 | 0.77 | 0.61 | 99 | 1002.9 |
| 20260506164006 | 40 | 306 | 4.0 | 7.0 | 0.01 | 0.76 | 0.60 | 99 | 1003.0 |
| 20260506163506 | 40 | 310 | 2.0 | 6.0 | 0.01 | 0.76 | 0.60 | 99 | 1003.0 |
| 20260506163005 | 40 | 311 | 2.0 | 6.0 | 0.01 | 0.76 | 0.60 | 99 | 1002.9 |
| 20260506162506 | 41 | 312 | 3.0 | 6.0 | 0.00 | 0.74 | 0.59 | 99 | 1002.8 |
| 20260506161506 | 41 | 312 | 2.0 | 4.0 | 0.00 | 0.74 | 0.59 | 99 | 1002.4 |
| 20260506161006 | 41 | 303 | 3.0 | 4.0 | 0.00 | 0.74 | 0.59 | 99 | 1002.4 |
| 20260506160506 | 42 | 303 | 2.0 | 4.0 | 0.00 | 0.74 | 0.59 | 99 | 1002.3 |
| 20260506160006 | 42 | 311 | 2.0 | 4.0 | 0.00 | 0.74 | 0.59 | 99 | 1002.3 |
| 20260506155506 | 42 | 306 | 2.0 | 4.0 | 0.00 | 0.74 | 0.59 | 99 | 1002.1 |
| 20260506155006 | 42 | 306 | 2.0 | 4.0 | 0.02 | 0.74 | 0.59 | 99 | 1002.2 |
| 20260506154506 | 42 | 306 | 3.0 | 4.0 | 0.04 | 0.74 | 0.59 | 99 | 1002.4 |
| 20260506154006 | 43 | 306 | 2.0 | 4.0 | 0.05 | 0.74 | 0.59 | 99 | 1002.3 |
| 20260506153006 | 43 | 303 | 2.0 | 4.0 | 0.06 | 0.74 | 0.59 | 99 | 1002.4 |
| 20260506152505 | 43 | 309 | 2.0 | 4.0 | 0.07 | 0.74 | 0.59 | 99 | 1002.5 |
| 20260506152006 | 43 | 316 | 2.0 | 4.0 | 0.07 | 0.74 | 0.59 | 99 | 1002.5 |
| 20260506151005 | 42 | 54 | 2.0 | 7.0 | 0.12 | 0.74 | 0.59 | 99 | 1002.5 |
| 20260506150506 | 42 | 62 | 2.0 | 8.0 | 0.13 | 0.74 | 0.59 | 99 | 1002.7 |
| 20260506150006 | 42 | 44 | 4.0 | 8.0 | 0.13 | 0.76 | 0.59 | 99 | 1002.8 |
| 20260506145005 | 43 | 357 | 2.0 | 4.0 | 0.11 | 0.73 | 0.57 | 99 | 1002.5 |
| 20260506144506 | 42 | 354 | 2.0 | 4.0 | 0.11 | 0.72 | 0.56 | 99 | 1002.7 |
| 20260506144006 | 42 | 7 | 2.0 | 4.0 | 0.09 | 0.71 | 0.56 | 99 | 1002.9 |
| 20260506143506 | 42 | 354 | 1.0 | 2.0 | 0.08 | 0.70 | 0.53 | 99 | 1003.1 |
| 20260506143005 | 42 | 127 | 0.0 | 4.0 | 0.08 | 0.70 | 0.53 | 99 | 1002.6 |
| 20260506142505 | 43 | 7 | 2.0 | 4.0 | 0.07 | 0.69 | 0.52 | 99 | 1002.9 |
| 20260506142006 | 43 | 67 | 2.0 | 4.0 | 0.07 | 0.69 | 0.52 | 99 | 1002.8 |
| 20260506141506 | 45 | 102 | 1.0 | 8.0 | 0.05 | 0.66 | 0.50 | 99 | 1003.3 |
| 20260506141006 | 44 | 91 | 3.0 | 11.0 | 0.02 | 0.65 | 0.47 | 99 | 1003.1 |
| 20260506140511 | 44 | 84 | 4.0 | 11.0 | 0.02 | 0.64 | 0.46 | 99 | 1003.1 |
| 20260506140006 | 45 | 61 | 2.0 | 11.0 | 0.02 | 0.64 | 0.46 | 99 | 1002.9 |
| 20260506135506 | 45 | 61 | 2.0 | 11.0 | 0.04 | 0.64 | 0.46 | 99 | 1002.7 |
| 20260506135005 | 45 | 80 | 3.0 | 11.0 | 0.04 | 0.64 | 0.46 | 99 | 1002.7 |
| 20260506134506 | 45 | 73 | 3.0 | 11.0 | 0.02 | 0.63 | 0.45 | 99 | 1002.6 |
| 20260506134006 | 45 | 67 | 4.0 | 8.0 | 0.02 | 0.63 | 0.45 | 99 | 1002.7 |
| 20260506133506 | 45 | 77 | 2.0 | 8.0 | 0.02 | 0.64 | 0.45 | 99 | 1003.0 |
| 20260506132506 | 45 | 75 | 2.0 | 11.0 | 0.02 | 0.64 | 0.45 | 99 | 1002.9 |
| 20260506132006 | 45 | 84 | 4.0 | 13.0 | 0.02 | 0.65 | 0.45 | 99 | 1003.1 |
| 20260506131506 | 45 | 83 | 5.0 | 13.0 | 0.02 | 0.65 | 0.45 | 99 | 1003.3 |
| 20260506131006 | 45 | 77 | 4.0 | 16.0 | 0.02 | 0.65 | 0.45 | 99 | 1002.8 |
| 20260506130506 | 45 | 82 | 5.0 | 20.0 | 0.01 | 0.64 | 0.44 | 99 | 1003.0 |
| 20260506125505 | 45 | 75 | 9.0 | 15.0 | 0.00 | 0.63 | 0.43 | 99 | 1002.2 |
| 20260506125005 | 45 | 79 | 8.0 | 18.0 | 0.00 | 0.63 | 0.43 | 99 | 1002.3 |
| 20260506124506 | 45 | 80 | 6.0 | 18.0 | 0.01 | 0.63 | 0.43 | 99 | 1002.1 |
| 20260506124005 | 45 | 72 | 6.0 | 17.0 | 0.01 | 0.63 | 0.43 | 99 | 1002.2 |
| 20260506123506 | 45 | 72 | 4.0 | 18.0 | 0.01 | 0.63 | 0.43 | 99 | 1002.2 |
| 20260506123005 | 45 | 79 | 4.0 | 18.0 | 0.01 | 0.63 | 0.43 | 99 | 1002.6 |
| 20260506122506 | 45 | 72 | 5.0 | 15.0 | 0.01 | 0.63 | 0.43 | 99 | 1002.3 |
| 20260506122006 | 45 | 74 | 5.0 | 23.0 | 0.02 | 0.64 | 0.43 | 99 | 1002.3 |
| 20260506121506 | 45 | 86 | 11.0 | 23.0 | 0.02 | 0.64 | 0.43 | 99 | 1002.5 |
| 20260506121005 | 44 | 90 | 10.0 | 22.0 | 0.02 | 0.64 | 0.43 | 99 | 1002.4 |
| 20260506120505 | 44 | 74 | 6.0 | 16.0 | 0.02 | 0.64 | 0.43 | 99 | 1002.4 |
| 20260506120006 | 44 | 66 | 4.0 | 23.0 | 0.02 | 0.64 | 0.43 | 99 | 1002.6 |
| 20260506115506 | 44 | 79 | 5.0 | 23.0 | 0.02 | 0.64 | 0.43 | 99 | 1002.4 |
| 20260506115006 | 44 | 83 | 14.0 | 23.0 | 0.02 | 0.64 | 0.43 | 99 | 1002.4 |
| 20260506114505 | 44 | 82 | 9.0 | 21.0 | 0.01 | 0.63 | 0.41 | 99 | 1002.5 |
| 20260506114005 | 44 | 71 | 4.0 | 25.0 | 0.01 | 0.63 | 0.41 | 99 | 1002.5 |
| 20260506113506 | 44 | 67 | 11.0 | 25.0 | 0.01 | 0.63 | 0.41 | 99 | 1002.3 |
| 20260506113005 | 44 | 79 | 7.0 | 23.0 | 0.01 | 0.63 | 0.41 | 99 | 1002.4 |
| 20260506112506 | 44 | 80 | 5.0 | 23.0 | 0.00 | 0.61 | 0.40 | 99 | 1002.6 |
| 20260506111506 | 44 | 74 | 8.0 | 17.0 | 0.00 | 0.61 | 0.40 | 99 | 1002.6 |
| 20260506110506 | 44 | 77 | 4.0 | 23.0 | 0.00 | 0.61 | 0.40 | 99 | 1002.5 |
| 20260506110005 | 44 | 77 | 6.0 | 17.0 | 0.00 | 0.61 | 0.40 | 99 | 1002.6 |
| 20260506105506 | 44 | 84 | 5.0 | 18.0 | 0.00 | 0.61 | 0.40 | 99 | 1002.8 |
| 20260506105005 | 44 | 88 | 7.0 | 18.0 | 0.00 | 0.61 | 0.40 | 99 | 1002.9 |
| 20260506104506 | 43 | 70 | 3.0 | 22.0 | 0.00 | 0.61 | 0.40 | 99 | 1002.8 |
| 20260506104005 | 43 | 71 | 7.0 | 25.0 | 0.00 | 0.61 | 0.40 | 99 | 1002.5 |
| 20260506103506 | 43 | 95 | 8.0 | 25.0 | 0.00 | 0.61 | 0.40 | 99 | 1002.5 |
| 20260506103007 | 43 | 89 | 11.0 | 25.0 | 0.00 | 0.61 | 0.40 | 99 | 1002.5 |
| 20260506102505 | 43 | 76 | 11.0 | 21.0 | 0.00 | 0.61 | 0.40 | 99 | 1002.9 |
| 20260506102006 | 43 | 73 | 10.0 | 21.0 | 0.00 | 0.61 | 0.40 | 99 | 1002.7 |
| 20260506101505 | 43 | 69 | 7.0 | 21.0 | 0.00 | 0.61 | 0.40 | 99 | 1002.6 |
| 20260506101006 | 43 | 76 | 16.0 | 21.0 | 0.00 | 0.61 | 0.40 | 99 | 1002.5 |
| 20260506100505 | 43 | 83 | 11.0 | 17.0 | 0.00 | 0.61 | 0.40 | 99 | 1002.5 |
| 20260506095506 | 42 | 78 | 4.0 | 20.0 | 0.01 | 0.61 | 0.40 | 99 | 1002.5 |
| 20260506095005 | 42 | 74 | 7.0 | 20.0 | 0.02 | 0.61 | 0.40 | 99 | 1002.5 |
| 20260506094506 | 42 | 79 | 4.0 | 23.0 | 0.04 | 0.61 | 0.40 | 99 | 1002.6 |
| 20260506094005 | 42 | 88 | 8.0 | 23.0 | 0.06 | 0.63 | 0.40 | 99 | 1002.6 |
| 20260506093506 | 42 | 97 | 4.0 | 18.0 | 0.07 | 0.63 | 0.40 | 99 | 1002.6 |
| 20260506093005 | 42 | 97 | 9.0 | 18.0 | 0.07 | 0.63 | 0.40 | 99 | 1002.2 |
| 20260506092506 | 42 | 57 | 4.0 | 18.0 | 0.07 | 0.63 | 0.40 | 99 | 1002.5 |
| 20260506092005 | 42 | 46 | 10.0 | 18.0 | 0.08 | 0.63 | 0.40 | 99 | 1002.2 |
| 20260506091505 | 42 | 45 | 6.0 | 24.0 | 0.08 | 0.63 | 0.40 | 99 | 1002.3 |
| 20260506091005 | 42 | 56 | 9.0 | 24.0 | 0.09 | 0.63 | 0.40 | 99 | 1001.9 |
| 20260506090505 | 42 | 80 | 5.0 | 22.0 | 0.09 | 0.64 | 0.40 | 99 | 1001.7 |
| 20260506090005 | 42 | 76 | 2.0 | 22.0 | 0.09 | 0.64 | 0.40 | 99 | 1002.4 |
| 20260506085005 | 42 | 84 | 9.0 | 20.0 | 0.07 | 0.61 | 0.38 | 99 | 1002.3 |
| 20260506084506 | 42 | 79 | 7.0 | 17.0 | 0.07 | 0.60 | 0.37 | 99 | 1002.1 |
| 20260506084005 | 42 | 61 | 4.0 | 15.0 | 0.05 | 0.58 | 0.34 | 99 | 1002.7 |
| 20260506083506 | 42 | 67 | 6.0 | 17.0 | 0.04 | 0.57 | 0.33 | 99 | 1002.4 |
| 20260506083005 | 42 | 69 | 3.0 | 17.0 | 0.05 | 0.58 | 0.33 | 99 | 1002.3 |
| 20260506082505 | 42 | 72 | 6.0 | 13.0 | 0.05 | 0.58 | 0.33 | 99 | 1002.5 |
| 20260506082005 | 42 | 86 | 4.0 | 13.0 | 0.04 | 0.57 | 0.32 | 99 | 1002.7 |
| 20260506081505 | 42 | 76 | 4.0 | 14.0 | 0.04 | 0.57 | 0.32 | 99 | 1002.4 |
| 20260506081006 | 42 | 59 | 4.0 | 22.0 | 0.02 | 0.57 | 0.31 | 99 | 1002.4 |
| 20260506080505 | 42 | 50 | 2.0 | 22.0 | 0.02 | 0.57 | 0.31 | 99 | 1002.4 |
| 20260506073505 | 42 | 71 | 6.0 | 18.0 | 0.01 | 0.56 | 0.30 | 99 | 1002.8 |
| 20260506073006 | 42 | 62 | 6.0 | 16.0 | 0.00 | 0.54 | 0.28 | 99 | 1002.6 |
| 20260506072006 | 42 | 71 | 6.0 | 17.0 | 0.00 | 0.58 | 0.28 | 99 | 1002.6 |
| 20260506071505 | 42 | 65 | 4.0 | 11.0 | 0.01 | 0.59 | 0.28 | 99 | 1002.5 |
| 20260506071006 | 42 | 72 | 2.0 | 15.0 | 0.01 | 0.60 | 0.28 | 99 | 1002.7 |
| 20260506070505 | 42 | 70 | 2.0 | 15.0 | 0.01 | 0.61 | 0.28 | 99 | 1002.6 |
| 20260506062505 | 41 | 63 | 5.0 | 15.0 | 0.04 | 0.67 | 0.28 | 99 | 1002.6 |
| 20260506062006 | 41 | 63 | 8.0 | 14.0 | 0.04 | 0.67 | 0.28 | 99 | 1002.5 |
| 20260506061506 | 42 | 64 | 8.0 | 14.0 | 0.04 | 0.66 | 0.27 | 99 | 1002.3 |
| 20260506061006 | 42 | 56 | 7.0 | 15.0 | 0.04 | 0.66 | 0.27 | 99 | 1002.7 |
| 20260506060506 | 42 | 54 | 4.0 | 15.0 | 0.04 | 0.67 | 0.27 | 99 | 1002.7 |
| 20260506051006 | 43 | 65 | 4.0 | 17.0 | 0.05 | 0.65 | 0.24 | 99 | 1002.9 |
| 20260506045005 | 43 | 85 | 6.0 | 16.0 | 0.04 | 0.64 | 0.22 | 99 | 1003.1 |
| 20260506044506 | 43 | 73 | 5.0 | 16.0 | 0.02 | 0.63 | 0.21 | 99 | 1003.1 |
| 20260506044006 | 43 | 78 | 7.0 | 14.0 | 0.01 | 0.61 | 0.20 | 99 | 1003.1 |
| 20260506043506 | 43 | 82 | 4.0 | 11.0 | 0.02 | 0.61 | 0.20 | 99 | 1003.3 |
| 20260506043005 | 43 | 79 | 6.0 | 16.0 | 0.06 | 0.61 | 0.20 | 99 | 1003.3 |
| 20260506042506 | 43 | 75 | 4.0 | 16.0 | 0.06 | 0.60 | 0.19 | 99 | 1003.2 |
| 20260506042005 | 44 | 77 | 4.0 | 11.0 | 0.06 | 0.60 | 0.19 | 99 | 1003.5 |
| 20260506041506 | 43 | 83 | 4.0 | 11.0 | 0.06 | 0.60 | 0.19 | 99 | 1003.1 |
| 20260506041005 | 43 | 80 | 5.0 | 11.0 | 0.06 | 0.60 | 0.19 | 99 | 1003.5 |
| 20260506040506 | 43 | 76 | 4.0 | 13.0 | 0.07 | 0.60 | 0.19 | 99 | 1003.2 |
| 20260506040006 | 44 | 75 | 4.0 | 13.0 | 0.08 | 0.60 | 0.19 | 99 | 1003.6 |
| 20260506035505 | 44 | 84 | 3.0 | 14.0 | 0.09 | 0.60 | 0.19 | 99 | 1003.3 |
| 20260506035006 | 44 | 82 | 2.0 | 14.0 | 0.11 | 0.60 | 0.19 | 99 | 1003.4 |
| 20260506034506 | 44 | 85 | 2.0 | 13.0 | 0.11 | 0.60 | 0.19 | 99 | 1003.4 |
| 20260506034005 | 44 | 95 | 3.0 | 13.0 | 0.11 | 0.60 | 0.19 | 99 | 1003.4 |
| 20260506033506 | 44 | 91 | 8.0 | 13.0 | 0.09 | 0.59 | 0.18 | 99 | 1003.3 |
| 20260506033006 | 44 | 90 | 5.0 | 13.0 | 0.06 | 0.56 | 0.14 | 99 | 1003.5 |
| 20260506032505 | 44 | 89 | 4.0 | 13.0 | 0.05 | 0.54 | 0.13 | 99 | 1003.5 |
| 20260506032005 | 44 | 85 | 2.0 | 11.0 | 0.05 | 0.54 | 0.13 | 99 | 1003.5 |
| 20260506031505 | 44 | 85 | 4.0 | 14.0 | 0.05 | 0.54 | 0.13 | 99 | 1003.6 |
| 20260506031006 | 44 | 90 | 3.0 | 14.0 | 0.05 | 0.54 | 0.13 | 99 | 1003.7 |
| 20260506030505 | 44 | 87 | 4.0 | 13.0 | 0.05 | 0.53 | 0.12 | 99 | 1003.7 |
| 20260506030005 | 44 | 89 | 4.0 | 8.0 | 0.04 | 0.52 | 0.11 | 99 | 1003.9 |
| 20260506025506 | 44 | 91 | 4.0 | 13.0 | 0.02 | 0.51 | 0.09 | 99 | 1003.7 |
| 20260506025006 | 44 | 87 | 2.0 | 13.0 | 0.01 | 0.50 | 0.08 | 99 | 1004.2 |
| 20260506024505 | 44 | 82 | 4.0 | 13.0 | 0.01 | 0.50 | 0.08 | 99 | 1004.1 |
| 20260506024006 | 44 | 77 | 6.0 | 11.0 | 0.01 | 0.50 | 0.08 | 99 | 1004.0 |
| 20260506023505 | 44 | 84 | 3.0 | 11.0 | 0.01 | 0.50 | 0.08 | 99 | 1004.1 |
| 20260506023006 | 44 | 90 | 3.0 | 8.0 | 0.01 | 0.50 | 0.08 | 99 | 1004.0 |
| 20260506022505 | 44 | 77 | 4.0 | 16.0 | 0.01 | 0.50 | 0.08 | 99 | 1004.3 |
| 20260506022005 | 44 | 73 | 4.0 | 16.0 | 0.01 | 0.50 | 0.08 | 99 | 1004.4 |
| 20260506021506 | 44 | 88 | 4.0 | 13.0 | 0.01 | 0.50 | 0.08 | 99 | 1004.3 |
| 20260506021005 | 44 | 91 | 3.0 | 11.0 | 0.01 | 0.50 | 0.08 | 99 | 1004.3 |
| 20260506020506 | 44 | 67 | 4.0 | 11.0 | 0.00 | 0.48 | 0.07 | 99 | 1004.4 |
| 20260506020005 | 44 | 65 | 3.0 | 11.0 | 0.00 | 0.48 | 0.07 | 99 | 1004.5 |
| 20260506015506 | 44 | 76 | 3.0 | 8.0 | 0.00 | 0.48 | 0.07 | 99 | 1004.2 |
| 20260506015006 | 44 | 88 | 4.0 | 8.0 | 0.00 | 0.48 | 0.07 | 99 | 1004.4 |
| 20260506014505 | 44 | 90 | 2.0 | 8.0 | 0.00 | 0.48 | 0.07 | 99 | 1004.5 |
| 20260506014006 | 44 | 94 | 4.0 | 6.0 | 0.00 | 0.48 | 0.07 | 99 | 1004.5 |
| 20260506013506 | 44 | 75 | 2.0 | 8.0 | 0.00 | 0.48 | 0.07 | 99 | 1004.5 |
| 20260506013005 | 44 | 61 | 1.0 | 8.0 | 0.00 | 0.48 | 0.07 | 99 | 1004.5 |
| 20260506012506 | 44 | 71 | 3.0 | 11.0 | 0.00 | 0.48 | 0.07 | 99 | 1004.6 |
| 20260506012005 | 44 | 77 | 3.0 | 11.0 | 0.00 | 0.48 | 0.07 | 99 | 1004.7 |
| 20260506011505 | 44 | 74 | 4.0 | 11.0 | 0.00 | 0.48 | 0.07 | 99 | 1004.8 |
| 20260506011006 | 44 | 79 | 2.0 | 8.0 | 0.00 | 0.48 | 0.07 | 99 | 1004.7 |
| 20260506010505 | 44 | 85 | 3.0 | 8.0 | 0.01 | 0.48 | 0.07 | 99 | 1004.8 |
| 20260506010006 | 44 | 84 | 4.0 | 8.0 | 0.01 | 0.48 | 0.07 | 99 | 1004.8 |
| 20260506005505 | 44 | 81 | 2.0 | 8.0 | 0.04 | 0.48 | 0.07 | 99 | 1004.9 |
| 20260506005006 | 44 | 80 | 2.0 | 9.0 | 0.04 | 0.48 | 0.07 | 99 | 1005.1 |